sat.trackr.live / text

‹ back to catalog

ONEWEB-0370

NORAD 49296 · 2021-090T

PAYLOAD ACTIVE UNKNOWN

§ Identity

Operator
Country
UK
Launch date
2021-10-14
Launch site
VOSTO
Launch vehicle
Mass (kg)
RCS (m²)

Purposes: comms

External: N2YO · Heavens-Above · Gunter

§ Orbital elements

Epoch: 2026-09-19T22:39:36.777024Z

Period
109.03 min
Inclination
87.9142°
Eccentricity
0.0001684
Mean motion
13.20771977 rev/d
Perigee alt
1,180.5 km
Apogee alt
1,183.0 km
Semi-major
7,559.9 km
B*
1.9026e-4
RAAN
255.5362°
Arg perigee
90.9302°
Mean anomaly
269.2024°
Rev number
24,237

§ Raw data

ONEWEB-03701 49296U 21090T   26262.94417566  .00000090  00000+0  19026-3 0  99912 49296  87.9142 255.5362 0001684  90.9302 269.2024 13.20771977242370

JSON: /api/v1/satellites/49296 · /tle

For live sub-satellite position, see the globe view (requires WebGL).

§ Visibility from observer

Set your observer location to see the next 7 days of passes ≥ 10°. The values pass through the URL so the page stays shareable.

No JS? Fill the form by hand. The geolocation button needs JavaScript.